Location: Fredericton
(45.9636°N, 66.6431°W)
Time: 07:45:43
(UTC-04:00)

ISS - Visible Passes

Search period start: 29 November 2022 00:00
Search period end: 09 December 2022 00:00
Orbit: 411 x 420 km, 51.6° (Epoch: 29 November)

Date Brightness Start Highest point End Pass type
(mag) Time Alt. Az. Time Alt. Az. Time Alt. Az.
29 Nov -2.6 17:28:48 10° WNW 17:31:47 29° N 17:34:26 12° ENE visible
29 Nov -1.8 19:05:44 10° WNW 19:07:19 24° NW 19:07:19 24° NW visible
30 Nov -3.1 18:17:02 10° NW 18:20:10 38° NNE 18:20:38 35° NE visible
01 Dec -2.8 17:28:15 10° WNW 17:31:18 32° N 17:34:00 12° ENE visible
01 Dec -2.1 19:04:58 10° WNW 19:06:54 32° WNW 19:06:54 32° WNW visible
02 Dec -3.8 18:16:12 10° WNW 18:19:30 63° NNE 18:20:21 43° E visible
03 Dec -3.4 17:27:24 10° WNW 17:30:38 45° NNE 17:33:51 10° E visible
03 Dec -2.2 19:04:12 10° WNW 19:06:49 35° WSW 19:06:49 35° WSW visible
04 Dec -3.4 18:15:16 10° WNW 18:18:34 62° SSW 18:20:34 21° SE visible
05 Dec -3.8 17:26:23 10° WNW 17:29:43 85° NNE 17:33:02 10° ESE visible
05 Dec -1.0 19:03:54 10° W 19:06:03 16° SW 19:07:31 13° SSW visible
06 Dec -1.6 18:14:29 10° W 18:17:20 26° SW 18:20:09 10° SSE visible
07 Dec -2.4 17:25:21 10° WNW 17:28:31 42° SW 17:31:41 10° SE visible
08 Dec -0.3 18:14:52 10° WSW 18:15:48 11° SW 18:16:43 10° SSW visible
